Location: Heidgraben
(53.7081°N, 9.6576°E)
Time: 17:49:00
(UTC+00:00)

Daily predictions for brighter satellites

Satellite Brightness Start Highest point End
(mag) Time Altitude Azimuth Time Altitude Azimuth Time Altitude Azimuth
Cosmos 2219 Rocket 2.9 20:34:26 10° S 20:39:24 34° ESE 20:44:24 10° NE
Cosmos 2360 Rocket 2.2 20:35:30 10° SSW 20:41:08 80° ESE 20:46:51 10° NE
IGS 5A 4.1 20:37:28 10° S 20:41:33 56° W 20:45:40 10° NNW
Cosmos 2333 Rocket 2.7 20:43:49 10° S 20:49:07 42° ESE 20:54:30 10° NE
Cosmos 1315 Rocket 3.0 20:45:39 10° N 20:49:45 67° ENE 20:53:51 10° SSE
ATLAS 2AS CENTAUR R/B 3.3 20:42:32 10° NW 20:50:18 64° NNE 20:57:26 10° ESE
Cosmos-2242 3.8 20:48:57 10° NNW 20:53:09 51° W 20:57:22 10° S
Resurs 01 Rocket 3.8 20:50:11 10° SW 20:53:41 23° W 20:57:12 10° NW
Cosmos 1818 3.6 20:50:54 10° SW 20:56:19 79° SE 21:01:48 10° NE
Cosmos 2221 3.0 20:53:53 10° N 20:58:11 49° ENE 21:02:25 10° SSE
Cosmos 773 Rocket 4.1 20:53:54 10° S 20:59:08 65° ESE 21:04:24 10° NNE
SL-16 R/B 3.5 20:54:49 10° WSW 21:00:16 46° NW 21:05:45 10° NNE
GEOS 3 Rocket 3.7 20:56:40 10° NE 21:02:04 66° SE 21:07:25 10° SW
ERS-1 Rocket 3.3 20:57:49 10° S 21:02:50 67° WSW 21:07:53 10° NNW
USA 215 3.6 20:59:15 10° ENE 21:05:28 43° SE 21:11:38 10° SSW
Cosmos 2278 Rocket 2.3 21:01:47 10° NNW 21:07:30 75° NE 21:13:09 10° SE
Cosmos 1892 4.1 21:07:02 10° SE 21:10:01 24° E 21:13:08 10° NE
Cosmos 1844 Rocket 4.1 21:07:06 10° NW 21:11:55 31° WSW 21:16:43 10° SSW
Cosmos 1400 Rocket 4.5 21:08:57 10° NNW 21:12:28 30° W 21:15:54 10° SSW
ATLAS 5 CENTAUR R/B 1.6 21:08:37 10° SW 21:12:53 84° SE 21:17:47 10° NE
Meteor 1-11 4.3 21:08:07 10° S 21:13:46 89° ESE 21:19:32 10° NNE
Aureole 2 Rocket 4.5 21:12:21 10° NNE 21:13:59 14° NE 21:15:39 10° E
Cosmos 1943 Rocket 4.1 21:10:27 10° NNW 21:15:06 25° NNE 21:19:44 10° E
SPOT 5 3.4 21:14:40 10° S 21:19:36 56° W 21:24:18 10° NNW
Lacrosse 5 rocket 2.2 21:16:41 10° W 21:20:49 52° N 21:24:42 10° ENE
SL-16 R/B 4.2 21:20:14 10° ESE 21:21:59 11° E 21:23:42 10° ENE
Cosmos 2056 Rocket 4.4 21:17:04 10° NNW 21:22:16 45° NE 21:27:29 10° SE
Nadezhda 3 Rocket 4.4 21:17:02 10° N 21:23:20 57° ENE 21:29:11 12° SSE
USA 81 4.2 21:21:22 10° SSW 21:26:39 77° W 21:31:58 10° N
Cosmos 2181 Rocket 4.5 21:20:59 10° NNW 21:27:14 60° W 21:33:22 10° S
Cosmos 2058 3.6 21:25:00 12° SSE 21:28:26 38° E 21:32:18 10° NNE
Cosmos 1408 3.9 21:29:06 13° SE 21:31:28 24° E 21:34:26 10° NE
TSX-5 3.7 21:30:57 10° NW 21:34:19 69° WSW 21:37:35 14° SSE
In-Cosmos 22 Rocket 4.4 21:29:55 11° S 21:34:51 52° E 21:40:01 10° NNE
Cosmos 2074 Rocket 4.0 21:29:41 10° S 21:35:53 73° E 21:42:05 10° NNE
Cosmos 1076 Rocket 4.0 21:36:08 14° SSE 21:39:38 45° E 21:43:43 10° NNE
Cosmos 1680 Rocket 4.2 21:35:42 12° SSE 21:40:04 37° ESE 21:44:55 10° NE
USA 267 3.4 21:34:05 10° SE 21:40:32 60° SW 21:47:03 10° WNW
CZ-4C R/B 3.9 21:37:31 10° NW 21:43:39 44° NNE 21:50:54 10° E
Cosmos 1842 Rocket 4.1 21:40:43 10° NNW 21:44:59 54° W 21:49:02 11° S
JB-3 4.2 21:42:31 10° NNE 21:46:24 76° ESE 21:49:57 12° S
COSMOS 2455 3.9 21:41:45 10° NW 21:47:30 43° NE 21:53:14 10° ESE
Cosmos 2322 Rocket 4.3 21:42:56 10° W 21:47:52 31° NW 21:52:51 10° NNE
Cosmos 2151 4.2 21:47:18 14° SE 21:50:10 28° E 21:53:50 10° NNE
MTI 3.6 21:47:18 10° NNE 21:50:25 87° WNW 21:53:10 12° SSW
ATLAS CENTAUR R/B 2.9 21:53:20 10° WNW 21:56:04 20° WSW 21:58:26 12° SSW
Cosmos 923 Rocket 4.1 21:52:20 10° S 21:57:28 61° ESE 22:02:42 10° NNE
Cosmos 2369 Rocket 3.7 21:54:45 10° NNW 21:59:42 31° NE 22:04:38 10° E
Cosmos 1151 Rocket 4.2 21:55:53 10° N 21:59:49 32° ENE 22:03:13 13° SE
Cosmos 1825 3.1 21:58:08 17° SSE 22:00:32 35° E 22:04:02 10° NNE
ALOS 2 3.3 21:58:03 14° SE 22:01:35 45° ENE 22:05:48 10° N
Cosmos 1980 3.9 21:56:55 10° S 22:02:18 54° ESE 22:07:49 10° NE
APEX 4.4 22:00:13 10° NNW 22:02:32 23° NE 22:04:48 10° E
Cosmos 1869 4.4 22:02:13 10° NNW 22:05:55 38° W 22:09:22 11° SSW
COSMOS 2428 2.9 22:01:34 10° SW 22:07:14 75° NW 22:12:58 10° NNE
Cosmos 371 Rocket 4.1 22:02:42 10° NNW 22:07:26 47° NE 22:11:47 12° SE
GP-B 4.1 22:04:14 10° NNE 22:08:19 34° E 22:11:24 16° SE
Cosmos 1624 Rocket 4.0 22:07:36 10° NNW 22:12:54 86° WSW 22:16:57 17° SSE
NOSS 3-4 (A) 4.0 22:06:41 10° NW 22:13:26 63° SW 22:19:46 15° SSE
NOSS 3-4 (C) 4.0 22:06:47 10° NW 22:13:33 64° SW 22:19:55 15° SSE
NOSS 0 Rocket 3.9 22:08:33 10° SSW 22:14:40 73° ESE 22:20:51 10° NE
Terra 3.5 22:11:16 10° SSW 22:15:14 26° W 22:19:14 10° NW
Cosmos 2237 Rocket 2.2 22:14:58 10° SSW 22:20:33 67° ESE 22:26:14 10° NE
SL-4 R/B 2.6 22:19:54 15° E 22:20:46 19° ENE 22:22:21 10° NNE
Genesis I 3.8 22:18:36 18° S 22:21:02 37° SE 22:24:39 10° ENE
Cosmos 2219 Rocket 2.9 22:17:38 10° SW 22:23:08 56° NW 22:28:41 10° NNE
Cosmos 2344 3.8 22:16:09 10° SSW 22:23:13 48° ESE 22:30:59 10° NE
Cosmos 2360 Rocket 4.2 22:20:50 10° W 22:25:46 30° NW 22:30:44 10° NNE
NOSS 3-3 (A) 4.2 22:19:48 10° SW 22:25:52 82° NW 22:32:51 10° NE
NOSS 3-3 (C) 4.2 22:19:54 10° SW 22:25:58 82° NW 22:32:57 10° NE
Thor Agena Rocket 3.5 22:23:51 10° NNE 22:29:01 83° ESE 22:33:18 15° SSW
Cosmos 2333 Rocket 3.2 22:27:52 10° WSW 22:33:23 48° NW 22:38:58 10° NNE
Cosmos 2221 4.4 22:32:00 10° NW 22:35:27 23° W 22:38:53 10° SW
RESURS DK-1 4.2 22:34:31 10° NNW 22:38:10 28° NE 22:41:47 10° ESE
Iridium 2 4.4 22:36:06 10° NNW 22:39:47 45° W 22:42:26 17° SSW
Cosmos 1515 Rocket 4.3 22:35:54 10° N 22:40:06 45° ENE 22:43:15 17° SE
BREEZE-M DEB (TANK) 2.5 22:37:48 10° W 22:40:57 26° SSW 22:41:22 25° S
ATLAS 2AS CENTAUR R/B 3.2 22:33:56 10° NW 22:41:13 50° WSW 22:46:24 18° S
EO 1 Del DPAF 3.3 22:38:25 10° NNE 22:42:12 76° WNW 22:44:59 17° SSW
Cosmos 1892 4.0 22:42:03 10° SW 22:45:34 35° WNW 22:49:07 10° N
Cosmos 1766 Rocket 3.7 22:44:24 21° S 22:47:16 64° E 22:51:40 10° NNE
Cosmos 1328 Rocket 3.5 22:43:13 10° N 22:47:34 81° ENE 22:50:25 21° SSE
Aureole 2 Rocket 2.4 22:45:04 10° NW 22:47:48 48° WSW 22:48:59 28° S
USA 215 3.3 22:42:20 10° ENE 22:48:57 90° SSE 22:55:32 10° WSW
Cosmos 1606 2.7 22:46:03 10° NNW 22:49:56 77° W 22:52:19 22° S
Okean 3 Rocket 3.6 22:47:02 20° S 22:50:06 77° E 22:54:33 10° NNE
Cosmos 2278 Rocket 3.7 22:46:33 10° NW 22:51:04 25° WSW 22:54:59 12° SSW
Cosmos 2297 3.8 22:47:19 10° NW 22:53:02 67° WSW 22:57:11 19° SSE
Cosmos 2112 Rocket 4.2 22:48:23 11° SSW 22:53:33 79° WNW 22:58:57 10° NNE
Cosmos 304 Rocket 4.3 22:49:08 10° NNW 22:53:56 57° ENE 22:58:04 14° SE
Cosmos 2218 Rocket 4.2 22:50:54 18° S 22:55:42 67° E 23:01:57 10° NNE
Cosmos 2228 Rocket 4.2 22:51:24 10° N 22:55:44 39° ENE 22:59:19 14° SE
Cosmos 1420 Rocket 4.1 22:51:34 10° NNW 22:56:50 72° WSW 23:00:36 20° SSE
Cosmos 158 Rocket 4.1 22:52:56 10° SW 22:57:44 68° WNW 23:02:40 10° NNE
ATLAS 5 CENTAUR R/B 3.6 22:53:53 10° W 22:58:03 34° NNW 23:02:48 10° NE
Cosmos 1943 Rocket 2.3 22:54:02 10° NNW 22:59:46 79° ENE 23:04:40 14° SE
Lacrosse 5 rocket 1.3 22:56:12 10° WNW 23:00:17 77° NNE 23:04:09 10° ESE
Cosmos 2366 rocket 4.1 22:56:35 18° S 23:01:23 69° E 23:07:42 10° NNE
Cosmos 1633 3.7 23:01:11 19° SE 23:03:03 32° E 23:06:19 10° NNE
Cosmos 2056 Rocket 4.4 22:59:23 10° NW 23:04:24 39° WSW 23:07:58 18° SSW
SL-16 R/B 2.4 23:00:47 18° S 23:04:53 58° ESE 23:10:29 10° NE
Cosmos 1408 4.0 23:03:24 11° SW 23:06:23 31° WNW 23:09:38 10° N
Cosmos 1959 Rocket 4.5 23:06:20 18° S 23:10:58 81° E 23:17:13 10° NNE
YAOGAN 11 4.1 23:09:09 20° SSE 23:12:09 82° ENE 23:16:37 10° NNW
Cosmos 1743 Rocket 4.3 23:12:36 19° SSE 23:15:14 41° E 23:19:20 10° NNE
Cosmos 2341 Rocket 4.3 23:11:46 14° SSW 23:17:06 64° WNW 23:23:17 10° N
Cosmos 332 Rocket 3.8 23:13:27 10° NNW 23:18:15 70° WSW 23:21:28 21° SSE
Cosmos 1680 Rocket 4.5 23:16:59 10° SW 23:22:06 46° NW 23:27:16 10° NNE
Meteor 2-3 Rocket 3.8 23:21:02 19° S 23:25:08 80° E 23:30:53 10° NNE
Cosmos 405 2.9 23:23:35 10° NNW 23:27:10 89° E 23:29:08 25° SSE
Cosmos 2151 4.1 23:23:52 13° SW 23:27:21 38° WNW 23:31:23 10° N
Helios 1A 3.2 23:24:53 22° S 23:27:24 60° WSW 23:31:34 10° NNW
Cosmos 1452 Rocket 3.8 23:26:26 10° NNW 23:31:36 57° WSW 23:35:06 20° S
CZ-4C R/B 2.9 23:26:07 10° NW 23:33:00 87° NE 23:41:07 10° SE
Meteor 2-6 Rocket 4.3 23:28:01 10° N 23:33:34 69° ENE 23:37:54 16° SSE
COSMOS 2455 3.0 23:27:46 10° NW 23:33:44 61° WSW 23:38:25 17° SSE
PSLV R/B 4.2 23:29:55 10° NNE 23:33:59 44° E 23:36:34 20° SSE
Cosmos 1110 Rocket 4.1 23:30:18 10° NNW 23:35:36 77° ENE 23:40:15 14° SSE
Cosmos 1933 4.4 23:32:13 10° NNW 23:35:53 35° W 23:38:13 19° SSW
SL-8 Rocket 4.3 23:30:59 15° SSW 23:36:03 62° WNW 23:42:11 10° N
Cosmos 1825 4.0 23:32:57 10° SW 23:36:09 25° WNW 23:39:21 10° N
Cosmos 1340 2.8 23:34:23 22° SSW 23:36:43 67° WNW 23:40:29 10° N
Cosmos 1151 Rocket 4.1 23:33:28 10° NNW 23:37:24 34° W 23:40:03 18° SW
ALOS 2 4.0 23:35:27 16° SW 23:38:07 27° W 23:41:53 10° NW
Cosmos 1408 Rocket 3.7 23:35:56 20° SSW 23:38:54 70° WNW 23:43:19 10° N
SL-16 R/B 3.8 23:33:59 10° ESE 23:39:36 37° ENE 23:45:17 10° N
Cosmos 1727 Rocket 4.2 23:37:18 10° NNW 23:43:27 63° W 23:48:04 19° S
APEX 3.7 23:41:38 10° WNW 23:43:55 24° WSW 23:44:22 23° SW
Resurs 1-4 Rocket 4.2 23:40:34 10° NE 23:44:03 17° E 23:47:32 10° SE
Cosmos 2369 Rocket 2.2 23:38:40 10° NW 23:44:16 74° WSW 23:48:49 16° SSE
GP-B 4.3 23:41:37 10° NNW 23:45:37 33° WNW 23:48:50 14° SW
Cosmos 44 3.0 23:43:38 14° SW 23:47:19 87° NW 23:51:50 10° NE
Cosmos 1500 Rocket 3.6 23:44:49 22° S 23:47:41 78° E 23:52:04 10° NNE
Cosmos 371 Rocket 4.3 23:43:25 10° NW 23:47:42 32° WSW 23:50:25 18° SSW
SeaSat 1 4.3 23:44:51 10° ENE 23:48:16 18° ESE 23:51:20 11° SE
SL-4 R/B 2.9 23:48:59 13° W 23:49:03 13° W 23:50:06 10° WNW
Helios 1B rocket 2.8 23:48:44 10° NNE 23:52:49 55° ESE 23:55:23 21° S
